{"data":{"norad_id":56878,"epoch":"2026-09-20T17:11:03.084288Z","epoch_age_seconds":98924,"freshness":"FRESH","line1":"1 56878U 23083C   26263.71600792 -.00001122  00000+0 -31266-4 0  9990","line2":"2 56878  43.0041  64.0913 0002122 272.1308  87.9301 15.27564588181459","mean_motion":15.27564588,"eccentricity":0.0002122,"inclination_deg":43.0041,"raan_deg":64.0913,"arg_perigee_deg":272.1308,"mean_anomaly_deg":87.9301,"bstar":-3.1266e-5,"rev_number":18145,"period_min":94.267699795617,"perigee_km":481.6392920176,"apogee_km":484.55119898259,"semimajor_km":6861.2322455001,"source":"CELESTRAK","updated_at":"2026-09-21T09:00:33.519445Z"}}